Location: Houhaj�rvi
(61.2833°N, 23.0000°E)
Time: 17:16:17
(UTC+00:00)

Resurs 01 Rocket - Pass Details

Date: 27 February 2020
Orbit: 634 x 645 km, 98.0° (Epoch: 29 March)

Event Time Altitude Azimuth Distance (km) Brightness Sun altitude
Exits shadow 17:33:49 20° 118° (ESE) 1,502 3.0 -13.7°
Maximum altitude 17:36:28 39° 60° (ENE) 962 2.2 -14.0°
Drops below altitude 10° 17:40:37 10° 351° (N) 2,045 4.4 -14.5°
Sets 17:42:55 0° 344° (NNW) 2,956 5.4 -14.8°
